SCP
0 0 0 0 0 0 0 0 0 0 0 0 0 0 0 0 0 0 0 0 0 0 0 0 0 0 0 0 0 0 0 0 0 0 0 0 0 0 0 0 0 0 0
0 0 0 0 0 0 0 0 0 0 0 0 0 0 0 0 0 0 0 0 0 0 0 0 0 0 0 0 0 0 0 0 0 0 0 0 0 0 0 0 0 0 0
0 0 0 0 0 0 0 0 0 0 0 0 0 0 0 0 0 0 0 0 0 0 0 0 0 0 0 0 0 0 0 0 0 0 0 0 0 0 0 0 0 0 0
0 0 0 0 0 0 0 0 0 0 0 0 0 0 0 0 0 0 0 0 0 0 0 0 0 0 0 0 0 0 0 0 0 0 0 0 0 0 0 0 0 0 0
0 0 0 0 0 0 0 0 0 0 0 0 0 0 0 0 0 0 0 0 0 0 0 0 0 0 0 0 0 0 0 0 0 0 0 0 0 0 0 0 0 0 0
0 0 0 0 0 0 0 0 0 0 0 0 0 0 0 0 0 0 0 0 0 0 0 0 0 0 0 0 0 0 0 0 0 0 0 0 0 0 0 0 0 0 0
0 0 0 0 0 0 0 0 0 0 0 0 0 0 0 0 0 0 0 0 0 0 0 0 0 0 0 0 0 0 0 0 0 0 0 0 0 0 0 0 0 0 0
0 0 0 0 0 0 0 0 0 0 0 0 0 0 0 0 0 0 0 0 0 0 0 0 0 0 0 0 0 0 0 0 0 0 0 0 0 0 0 0 0 -0 0
0 0 0 0 0 0 0 0 0 0 0 0 0 0 0 0 0 0 0 0 0 0 0 0 0 0 0 0 0 0 0 0 0 0 0 0 0 0 0 0 0 0 -0
0 0 0 0 0 0 0 0 0 0 0 0 0 0 0 0 0 0 0 0 0 0 0 0 0 0 0 0 0 0 0 0 0 0 0 0 0 0 0 0 0 0 0
0 0 0 0 0 0 0 0 0 0 0 0 0 0 0 0 0 0 0 0 0 0 0 0 0 0 0 0 0 0 0 0 0 0 0 0 -0 -0 0 0 0 0 0
0 0 0 0 0 0 0 0 0 0 0 0 0 0 0 0 0 0 0 0 0 0 0 0 0 0 0 0 0 0 0 0 0 0 0 0 0 -0 -0 0 0 0 0
0 0 0 0 0 0 0 0 0 0 0 0 0 0 0 0 0 0 0 0 0 0 0 0 0 0 0 0 0 0 0 0 0 0 0 0 0 0 0 0 0 0 0
0 0 0 0 0 0 0 0 0 0 0 0 0 0 0 0 0 0 0 0 0 0 0 0 0 0 0 0 0 0 0 0 0 0 0 0 0 0 0 0 0 0 0
0 0 0 0 0 0 0 0 0 0 0 0 0 0 0 0 0 0 0 0 0 0 0 0 0 0 0 0 0 0 0 0 0 0 0 0 0 0 0 0 0 0 0
0 0 0 0 0 0 0 0 0 0 0 0 0 0 0 0 0 0 0 0 0 0 0 0 0 0 0 0 0 0 0 0 0 0 0 0 0 0 0 0 0 0 0
0 0 0 0 0 0 0 0 0 0 0 0 0 0 0 0 0 0 0 0 0 0 0 0 0 0 0 0 0 0 0 0 0 0 0 0 0 0 0 0 0 0 0
0 0 0 0 0 0 0 0 0 0 0 0 0 0 0 0 0 0 0 0 0 0 0 0 0 0 0 0 0 0 0 0 0 0 0 0 0 0 0 0 0 0 0
0 0 0 0 0 0 0 0 0 0 0 0 0 0 0 0 0 0 0 0 0 0 0 0 0 0 0 0 0 0 0 0 0 0 0 0 0 0 0 0 0 0 0
0 0 0 0 0 0 0 0 0 0 0 0 0 0 0 0 0 0 0 0 0 0 0 0 0 0 0 0 0 0 0 0 0 0 0 0 0 0 0 0 0 0 0
0 0 0 0 0 0 0 0 0 0 0 0 0 0 0 0 0 0 0 0 0 0 0 0 0 0 0 0 0 0 0 0 0 0 0 0 0 0 0 0 0 0 0
0 0 0 0 0 0 0 0 0 0 0 0 0 0 0 0 0 0 0 0 0 0 0 0 0 0 0 0 0 0 0 0 0 0 0 0 0 0 0 0 0 0 0
0 0 0 0 0 0 0 0 0 0 0 0 0 0 0 0 0 0 0 0 0 0 0 0 0 0 0 0 0 0 0 0 0 0 0 0 0 0 0 0 0 0 0
0 0 0 0 0 0 0 0 0 0 0 0 0 0 0 0 0 0 0 0 0 0 0 0 0 0 0 0 0 0 0 0 0 0 0 0 0 0 0 0 0 0 0
0 0 0 0 0 0 0 0 0 0 0 0 0 0 0 0 0 0 0 0 0 0 0 0 0 0 0 0 0 0 0 0 0 0 0 0 0 0 0 0 0 0 0
0 0 0 0 0 0 0 0 0 0 0 0 0 0 0 0 0 0 0 0 0 0 0 0 0 0 0 0 0 0 0 0 0 0 0 0 0 0 0 0 0 0 0
Wind_Speed_500mb
24 26 28 30 33 36 40 44 45 46 43 39 33 32 26 21 11 9 9 6 4 5 7 10 13 15 15 20 20 20 26 28 35 42 45 47 47 36 36 43 39 32 30
31 38 41 42 42 43 43 42 41 40 38 36 36 34 35 37 32 25 18 14 9 5 4 6 10 11 13 15 17 20 21 25 30 29 33 17 21 27 22 30 34 40 42
37 44 51 56 57 56 56 54 51 48 46 43 40 38 33 30 26 23 18 15 15 14 13 13 14 15 16 18 22 22 21 22 25 27 17 14 12 39 15 26 33 34 40
39 45 49 53 53 54 51 46 43 39 35 32 30 26 27 27 27 23 21 17 15 15 15 16 17 19 21 21 24 26 26 28 29 24 23 19 24 16 30 27 40 37 44
37 43 47 49 50 48 44 41 37 35 34 31 26 22 23 25 26 23 17 14 13 13 14 16 18 20 22 24 25 26 28 30 30 32 33 30 24 16 24 45 45 56 49
45 46 47 46 46 43 39 36 32 33 30 24 21 18 21 23 21 18 12 10 9 12 14 17 19 21 22 24 26 28 29 30 31 32 33 33 32 28 27 39 47 60 53
52 50 47 45 43 39 34 27 24 23 21 17 17 19 22 22 15 8 5 7 8 10 13 16 18 21 23 25 27 29 31 33 34 35 36 37 38 41 43 41 47 53 73
58 56 51 46 42 38 32 25 21 17 20 21 22 24 21 15 11 10 9 7 10 14 17 20 22 24 26 27 29 31 33 34 37 40 42 44 45 47 49 48 47 60 53
64 62 55 48 43 37 30 25 25 25 28 27 23 21 16 10 7 7 8 9 12 14 18 21 25 27 29 31 32 35 38 41 43 47 50 52 53 54 55 56 53 44 58
66 65 61 53 46 39 35 32 30 27 27 26 22 17 10 5 2 4 7 10 15 18 21 25 29 32 34 36 38 41 45 48 52 56 58 60 60 59 57 56 55 51 48
70 70 64 56 50 45 40 36 35 32 30 27 23 17 11 7 3 3 8 14 19 23 27 31 35 38 40 44 46 49 53 57 60 61 63 65 65 64 62 60 58 55 48
75 74 69 63 57 52 46 42 39 37 34 30 25 20 16 10 9 8 12 17 22 27 32 35 37 39 42 46 51 53 56 60 63 65 66 68 68 68 65 60 58 54 52
71 72 71 70 64 57 51 45 42 40 39 36 30 25 20 16 15 15 18 21 26 31 35 37 40 43 47 51 55 57 59 61 62 64 67 70 73 74 71 68 67 63 59
74 73 72 74 67 61 53 47 44 45 45 41 36 30 24 22 23 24 26 28 31 35 38 41 43 46 50 54 56 59 61 63 64 65 68 70 72 72 74 75 69 61 57
65 72 75 75 69 64 58 51 49 51 51 48 43 35 30 30 32 33 37 38 37 38 40 43 46 49 52 56 59 60 63 64 65 66 68 70 73 75 72 66 62 58 59
71 74 72 67 65 60 60 57 58 58 57 52 46 40 39 39 41 43 45 46 44 42 42 46 50 54 57 59 61 63 64 65 67 70 71 70 70 68 67 63 53 50 58
65 65 60 51 49 49 49 57 61 57 57 53 49 47 47 50 50 50 52 52 50 47 45 49 54 59 61 61 62 64 64 66 68 69 71 70 65 65 61 57 53 52 51
53 49 42 39 38 38 42 44 51 54 54 53 52 51 54 55 55 54 54 55 53 51 51 54 58 63 60 62 62 63 63 65 66 66 67 66 64 60 55 58 60 63 61
40 35 34 33 34 37 40 42 47 50 52 52 51 54 56 56 57 58 56 56 54 53 53 57 62 60 61 60 61 62 62 63 65 65 62 59 58 55 55 66 73 73 73
36 34 32 33 34 37 41 42 44 46 45 43 48 53 52 52 56 58 57 55 54 55 57 61 63 62 61 58 59 60 59 60 59 59 58 53 55 57 59 65 73 87 83
31 26 24 27 28 35 40 43 41 40 40 42 48 53 55 56 57 58 56 55 55 57 60 62 62 59 58 57 58 58 54 51 52 52 56 55 55 58 62 62 71 78 77
25 21 21 28 34 40 43 44 40 38 42 49 56 59 61 61 59 55 54 55 56 58 62 62 61 60 56 56 56 56 53 46 48 51 55 55 56 66 66 64 61 60 59
21 22 30 39 38 43 50 51 47 46 49 56 62 63 60 59 55 54 54 55 56 60 60 60 59 57 56 57 55 51 46 44 40 49 51 61 71 65 64 58 56 57 55
28 32 41 48 46 49 56 59 57 54 58 58 59 58 57 55 54 54 54 55 57 58 58 56 56 57 58 59 52 46 46 42 45 55 71 66 61 59 57 53 49 48 45
32 39 44 56 54 52 57 59 58 58 57 53 53 55 55 53 53 54 54 57 56 56 55 55 54 55 57 51 41 40 40 44 51 57 60 56 55 55 52 50 49 47 46
37 42 48 52 59 57 57 56 56 56 54 52 51 53 53 53 54 55 56 56 57 55 56 55 52 52 52 43 43 38 39 44 59 55 53 51 50 51 50 50 50 49 49
Wind_Direction_500mb
123 126 127 122 117 114 112 113 113 114 118 121 126 129 129 118 118 106 94 81 40 347 339 331 319 315 312 316 314 313 311 308 305 305 298 299 298 292 293 297 297 293 302
126 124 124 124 122 122 121 118 116 118 121 121 121 118 113 111 106 99 98 86 69 52 16 344 337 332 327 313 311 312 315 314 320 325 327 323 312 297 299 290 288 291 294
134 127 123 122 121 119 116 112 110 110 108 106 107 110 112 108 104 98 87 73 52 37 26 16 10 0 353 349 350 346 340 342 344 346 358 336 321 324 300 304 294 294 292
145 136 128 123 120 117 114 112 110 110 110 114 117 117 119 121 108 95 78 57 45 32 27 23 19 15 14 9 9 7 5 2 354 356 358 340 317 320 315 310 316 309 313
157 145 136 131 129 125 122 116 112 110 110 113 116 118 119 113 99 88 78 64 44 31 22 19 18 11 9 8 5 359 358 356 354 353 350 345 342 326 307 307 311 310 315
167 158 148 141 138 135 130 121 116 113 114 118 118 119 113 103 93 82 62 45 30 20 10 7 3 5 0 356 356 355 353 352 348 344 341 338 336 321 315 305 307 310 316
174 168 160 152 148 143 138 129 122 114 118 125 132 142 134 123 109 81 67 54 38 19 9 5 356 354 351 349 346 345 344 343 341 336 331 326 319 313 309 305 302 302 307
181 176 170 164 161 158 155 152 150 143 150 155 154 151 147 139 122 112 85 43 16 3 359 354 351 349 346 343 341 339 337 335 332 328 324 320 315 309 305 300 300 303 300
185 181 179 176 175 172 170 173 174 172 165 165 164 163 159 138 107 76 44 7 351 349 346 341 339 337 335 333 332 331 330 329 327 325 323 319 315 311 306 301 297 292 295
188 188 187 185 183 184 187 187 184 181 175 173 174 177 178 174 121 35 10 346 339 340 336 332 330 329 329 328 327 328 328 328 327 326 324 322 318 314 309 303 297 290 284
191 191 191 192 194 195 197 198 196 191 190 189 190 196 203 208 251 323 329 329 330 331 327 325 323 323 325 325 326 328 328 328 327 327 325 323 319 316 312 306 300 293 286
195 196 197 199 200 203 205 207 202 199 199 201 204 208 222 234 251 283 305 314 318 322 323 319 318 320 321 322 323 324 325 325 325 325 324 320 317 314 311 307 301 295 290
197 201 204 207 208 210 211 212 211 209 211 211 213 219 228 241 261 277 291 301 311 317 317 315 316 319 320 321 321 321 321 321 320 320 319 316 313 311 309 306 301 296 292
200 204 208 212 215 218 221 220 219 218 218 218 220 228 237 251 263 274 280 293 303 309 312 313 313 316 317 317 317 318 318 318 318 317 315 313 311 309 308 305 301 299 296
201 207 211 215 219 224 227 228 227 226 224 222 225 231 241 254 265 271 279 283 290 298 306 309 310 312 313 314 316 316 316 315 316 315 313 312 311 310 307 305 301 297 295
207 210 214 218 222 229 235 235 232 229 226 226 229 236 246 256 267 271 275 276 279 287 297 305 309 311 312 312 313 314 315 316 316 315 313 312 311 311 308 303 296 293 295
206 208 212 214 229 235 237 237 233 230 228 228 233 241 251 259 266 272 274 272 273 282 291 301 307 310 309 307 310 312 314 315 314 312 312 312 313 313 308 303 299 296 295
198 198 213 216 218 227 235 238 231 228 228 230 236 245 255 262 267 270 271 269 272 282 292 298 302 306 304 305 308 311 313 313 311 311 312 310 313 312 306 306 306 305 299
201 200 204 214 226 232 236 236 222 220 225 233 243 251 258 263 266 268 268 270 275 283 290 298 304 303 303 305 308 310 312 311 311 311 313 311 310 309 309 307 304 302 302
186 196 211 221 226 230 227 222 217 222 232 239 254 257 257 264 267 269 271 274 279 285 293 299 300 300 300 305 306 309 309 308 308 309 312 313 308 308 307 304 303 302 302
189 200 218 234 231 221 220 218 218 226 251 259 258 254 256 260 265 267 271 276 280 285 291 296 297 296 299 302 305 308 310 308 307 308 308 310 311 311 306 301 295 295 300
192 208 230 240 228 223 219 214 229 256 260 261 259 257 257 258 263 268 272 276 280 287 293 294 293 295 299 301 305 308 308 303 303 307 309 309 310 307 309 307 303 302 299
206 225 244 237 228 226 221 226 245 257 264 265 260 256 255 259 265 269 272 276 281 287 289 289 291 294 297 299 303 305 306 306 306 305 301 302 315 318 318 318 312 307 306
222 231 239 232 227 233 236 239 247 259 266 264 258 253 255 261 265 268 271 275 281 284 285 286 290 293 296 300 303 310 317 317 311 305 303 312 316 321 324 327 326 324 319
227 232 237 229 229 232 240 246 252 259 263 259 252 250 255 260 263 267 271 276 279 280 281 284 286 290 295 301 306 307 306 310 300 298 307 315 320 324 329 332 337 338 335
239 237 237 235 232 238 244 244 251 258 257 250 248 253 257 259 263 267 272 275 278 277 280 285 286 288 291 288 295 299 298 294 286 299 308 315 320 324 329 334 337 340 341
Wind_Speed_850mb
24 26 28 30 33 36 40 44 45 46 43 39 33 32 26 21 11 9 9 6 4 5 7 10 13 15 15 20 20 20 26 28 35 42 45 47 47 36 36 43 39 32 30
31 38 41 42 42 43 43 42 41 40 38 36 36 34 35 37 32 25 18 14 9 5 4 6 10 11 13 15 17 20 21 25 30 29 33 17 21 27 22 30 34 40 42
37 44 51 56 57 56 56 54 51 48 46 43 40 38 33 30 26 23 18 15 15 14 13 13 14 15 16 18 22 22 21 22 25 27 17 14 12 39 15 26 33 34 40
39 45 49 53 53 54 51 46 43 39 35 32 30 26 27 27 27 23 21 17 15 15 15 16 17 19 21 21 24 26 26 28 29 24 23 19 24 16 30 27 40 37 44
37 43 47 49 50 48 44 41 37 35 34 31 26 22 23 25 26 23 17 14 13 13 14 16 18 20 22 24 25 26 28 30 30 32 33 30 24 16 24 45 45 56 49
45 46 47 46 46 43 39 36 32 33 30 24 21 18 21 23 21 18 12 10 9 12 14 17 19 21 22 24 26 28 29 30 31 32 33 33 32 28 27 39 47 60 53
52 50 47 45 43 39 34 27 24 23 21 17 17 19 22 22 15 8 5 7 8 10 13 16 18 21 23 25 27 29 31 33 34 35 36 37 38 41 43 41 47 53 73
58 56 51 46 42 38 32 25 21 17 20 21 22 24 21 15 11 10 9 7 10 14 17 20 22 24 26 27 29 31 33 34 37 40 42 44 45 47 49 48 47 60 53
64 62 55 48 43 37 30 25 25 25 28 27 23 21 16 10 7 7 8 9 12 14 18 21 25 27 29 31 32 35 38 41 43 47 50 52 53 54 55 56 53 44 58
66 65 61 53 46 39 35 32 30 27 27 26 22 17 10 5 2 4 7 10 15 18 21 25 29 32 34 36 38 41 45 48 52 56 58 60 60 59 57 56 55 51 48
70 70 64 56 50 45 40 36 35 32 30 27 23 17 11 7 3 3 8 14 19 23 27 31 35 38 40 44 46 49 53 57 60 61 63 65 65 64 62 60 58 55 48
75 74 69 63 57 52 46 42 39 37 34 30 25 20 16 10 9 8 12 17 22 27 32 35 37 39 42 46 51 53 56 60 63 65 66 68 68 68 65 60 58 54 52
71 72 71 70 64 57 51 45 42 40 39 36 30 25 20 16 15 15 18 21 26 31 35 37 40 43 47 51 55 57 59 61 62 64 67 70 73 74 71 68 67 63 59
74 73 72 74 67 61 53 47 44 45 45 41 36 30 24 22 23 24 26 28 31 35 38 41 43 46 50 54 56 59 61 63 64 65 68 70 72 72 74 75 69 61 57
65 72 75 75 69 64 58 51 49 51 51 48 43 35 30 30 32 33 37 38 37 38 40 43 46 49 52 56 59 60 63 64 65 66 68 70 73 75 72 66 62 58 59
71 74 72 67 65 60 60 57 58 58 57 52 46 40 39 39 41 43 45 46 44 42 42 46 50 54 57 59 61 63 64 65 67 70 71 70 70 68 67 63 53 50 58
65 65 60 51 49 49 49 57 61 57 57 53 49 47 47 50 50 50 52 52 50 47 45 49 54 59 61 61 62 64 64 66 68 69 71 70 65 65 61 57 53 52 51
53 49 42 39 38 38 42 44 51 54 54 53 52 51 54 55 55 54 54 55 53 51 51 54 58 63 60 62 62 63 63 65 66 66 67 66 64 60 55 58 60 63 61
40 35 34 33 34 37 40 42 47 50 52 52 51 54 56 56 57 58 56 56 54 53 53 57 62 60 61 60 61 62 62 63 65 65 62 59 58 55 55 66 73 73 73
36 34 32 33 34 37 41 42 44 46 45 43 48 53 52 52 56 58 57 55 54 55 57 61 63 62 61 58 59 60 59 60 59 59 58 53 55 57 59 65 73 87 83
31 26 24 27 28 35 40 43 41 40 40 42 48 53 55 56 57 58 56 55 55 57 60 62 62 59 58 57 58 58 54 51 52 52 56 55 55 58 62 62 71 78 77
25 21 21 28 34 40 43 44 40 38 42 49 56 59 61 61 59 55 54 55 56 58 62 62 61 60 56 56 56 56 53 46 48 51 55 55 56 66 66 64 61 60 59
21 22 30 39 38 43 50 51 47 46 49 56 62 63 60 59 55 54 54 55 56 60 60 60 59 57 56 57 55 51 46 44 40 49 51 61 71 65 64 58 56 57 55
28 32 41 48 46 49 56 59 57 54 58 58 59 58 57 55 54 54 54 55 57 58 58 56 56 57 58 59 52 46 46 42 45 55 71 66 61 59 57 53 49 48 45
32 39 44 56 54 52 57 59 58 58 57 53 53 55 55 53 53 54 54 57 56 56 55 55 54 55 57 51 41 40 40 44 51 57 60 56 55 55 52 50 49 47 46
37 42 48 52 59 57 57 56 56 56 54 52 51 53 53 53 54 55 56 56 57 55 56 55 52 52 52 43 43 38 39 44 59 55 53 51 50 51 50 50 50 49 49
Wind_Direction_850mb
123 126 127 122 117 114 112 113 113 114 118 121 126 129 129 118 118 106 94 81 40 347 339 331 319 315 312 316 314 313 311 308 305 305 298 299 298 292 293 297 297 293 302
126 124 124 124 122 122 121 118 116 118 121 121 121 118 113 111 106 99 98 86 69 52 16 344 337 332 327 313 311 312 315 314 320 325 327 323 312 297 299 290 288 291 294
134 127 123 122 121 119 116 112 110 110 108 106 107 110 112 108 104 98 87 73 52 37 26 16 10 0 353 349 350 346 340 342 344 346 358 336 321 324 300 304 294 294 292
145 136 128 123 120 117 114 112 110 110 110 114 117 117 119 121 108 95 78 57 45 32 27 23 19 15 14 9 9 7 5 2 354 356 358 340 317 320 315 310 316 309 313
157 145 136 131 129 125 122 116 112 110 110 113 116 118 119 113 99 88 78 64 44 31 22 19 18 11 9 8 5 359 358 356 354 353 350 345 342 326 307 307 311 310 315
167 158 148 141 138 135 130 121 116 113 114 118 118 119 113 103 93 82 62 45 30 20 10 7 3 5 0 356 356 355 353 352 348 344 341 338 336 321 315 305 307 310 316
174 168 160 152 148 143 138 129 122 114 118 125 132 142 134 123 109 81 67 54 38 19 9 5 356 354 351 349 346 345 344 343 341 336 331 326 319 313 309 305 302 302 307
181 176 170 164 161 158 155 152 150 143 150 155 154 151 147 139 122 112 85 43 16 3 359 354 351 349 346 343 341 339 337 335 332 328 324 320 315 309 305 300 300 303 300
185 181 179 176 175 172 170 173 174 172 165 165 164 163 159 138 107 76 44 7 351 349 346 341 339 337 335 333 332 331 330 329 327 325 323 319 315 311 306 301 297 292 295
188 188 187 185 183 184 187 187 184 181 175 173 174 177 178 174 121 35 10 346 339 340 336 332 330 329 329 328 327 328 328 328 327 326 324 322 318 314 309 303 297 290 284
191 191 191 192 194 195 197 198 196 191 190 189 190 196 203 208 251 323 329 329 330 331 327 325 323 323 325 325 326 328 328 328 327 327 325 323 319 316 312 306 300 293 286
195 196 197 199 200 203 205 207 202 199 199 201 204 208 222 234 251 283 305 314 318 322 323 319 318 320 321 322 323 324 325 325 325 325 324 320 317 314 311 307 301 295 290
197 201 204 207 208 210 211 212 211 209 211 211 213 219 228 241 261 277 291 301 311 317 317 315 316 319 320 321 321 321 321 321 320 320 319 316 313 311 309 306 301 296 292
200 204 208 212 215 218 221 220 219 218 218 218 220 228 237 251 263 274 280 293 303 309 312 313 313 316 317 317 317 318 318 318 318 317 315 313 311 309 308 305 301 299 296
201 207 211 215 219 224 227 228 227 226 224 222 225 231 241 254 265 271 279 283 290 298 306 309 310 312 313 314 316 316 316 315 316 315 313 312 311 310 307 305 301 297 295
207 210 214 218 222 229 235 235 232 229 226 226 229 236 246 256 267 271 275 276 279 287 297 305 309 311 312 312 313 314 315 316 316 315 313 312 311 311 308 303 296 293 295
206 208 212 214 229 235 237 237 233 230 228 228 233 241 251 259 266 272 274 272 273 282 291 301 307 310 309 307 310 312 314 315 314 312 312 312 313 313 308 303 299 296 295
198 198 213 216 218 227 235 238 231 228 228 230 236 245 255 262 267 270 271 269 272 282 292 298 302 306 304 305 308 311 313 313 311 311 312 310 313 312 306 306 306 305 299
201 200 204 214 226 232 236 236 222 220 225 233 243 251 258 263 266 268 268 270 275 283 290 298 304 303 303 305 308 310 312 311 311 311 313 311 310 309 309 307 304 302 302
186 196 211 221 226 230 227 222 217 222 232 239 254 257 257 264 267 269 271 274 279 285 293 299 300 300 300 305 306 309 309 308 308 309 312 313 308 308 307 304 303 302 302
189 200 218 234 231 221 220 218 218 226 251 259 258 254 256 260 265 267 271 276 280 285 291 296 297 296 299 302 305 308 310 308 307 308 308 310 311 311 306 301 295 295 300
192 208 230 240 228 223 219 214 229 256 260 261 259 257 257 258 263 268 272 276 280 287 293 294 293 295 299 301 305 308 308 303 303 307 309 309 310 307 309 307 303 302 299
206 225 244 237 228 226 221 226 245 257 264 265 260 256 255 259 265 269 272 276 281 287 289 289 291 294 297 299 303 305 306 306 306 305 301 302 315 318 318 318 312 307 306
222 231 239 232 227 233 236 239 247 259 266 264 258 253 255 261 265 268 271 275 281 284 285 286 290 293 296 300 303 310 317 317 311 305 303 312 316 321 324 327 326 324 319
227 232 237 229 229 232 240 246 252 259 263 259 252 250 255 260 263 267 271 276 279 280 281 284 286 290 295 301 306 307 306 310 300 298 307 315 320 324 329 332 337 338 335
239 237 237 235 232 238 244 244 251 258 257 250 248 253 257 259 263 267 272 275 278 277 280 285 286 288 291 288 295 299 298 294 286 299 308 315 320 324 329 334 337 340 341